This is the latest recevied weather packets stored in our database for station/object VE3DVC. If no packets are shown the sender has not sent any weather packets the latest 10 day(s).
| Time | Temp. | Humidity | Pressure | Rain* | Wind** | Luminosity | Snow |
|---|---|---|---|---|---|---|---|
| 1777363171 | 13.33° C | 75% | 1010.4 hPa | 0.25 mm | - | - | - |
| 1777362451 | 13.33° C | 76% | 1010.7 hPa | 0 mm | - | - | - |
| 1777361731 | 13.89° C | 73% | 1011 hPa | 0 mm | - | - | - |
| 1777361011 | 15° C | 69% | 1011.6 hPa | 0 mm | - | - | - |
| 1777360082 | 15° C | 66% | 1011.7 hPa | 0 mm | - | - | - |
| 1777359363 | 15° C | 65% | 1011.5 hPa | 0 mm | - | - | - |
| 1777358642 | 15° C | 64% | 1011.1 hPa | 0 mm | - | - | - |
| 1777357922 | 15.56° C | 62% | 1010.9 hPa | 0 mm | - | - | - |
| 1777357202 | 15.56° C | 61% | 1011.1 hPa | 0 mm | - | - | - |
| 1777356021 | 15.56° C | 61% | 1011.3 hPa | 0 mm | - | - | - |
| 1777355301 | 15.56° C | 61% | 1011.5 hPa | 0 mm | - | - | - |
| 1777354581 | 15.56° C | 61% | 1011.6 hPa | 0 mm | - | - | - |
| 1777353861 | 15.56° C | 60% | 1011.7 hPa | 0 mm | - | - | - |
| 1777353141 | 15.56° C | 61% | 1012 hPa | 0 mm | - | - | - |
| 1777352422 | 15.56° C | 61% | 1011.9 hPa | 0 mm | - | - | - |
| 1777351701 | 15.56° C | 61% | 1011.9 hPa | 0 mm | - | - | - |
| 1777350982 | 15.56° C | 62% | 1011.8 hPa | 0 mm | - | - | - |
| 1777350262 | 15.56° C | 63% | 1012.1 hPa | 0 mm | - | - | - |
| 1777349541 | 15° C | 65% | 1012.3 hPa | 0 mm | - | - | - |
| 1777348821 | 15° C | 66% | 1012.4 hPa | 0 mm | - | - | - |
| 1777348101 | 15° C | 66% | 1012.5 hPa | 0 mm | - | - | - |
| 1777347381 | 15° C | 65% | 1012.7 hPa | 0 mm | - | - | - |
| 1777346662 | 15° C | 65% | 1012.9 hPa | 0 mm | - | - | - |
| 1777345941 | 15° C | 67% | 1012.9 hPa | 0 mm | - | - | - |
| 1777345221 | 15° C | 61% | 1012.6 hPa | 0 mm | - | - | - |
* Rain latest hour (hover to see other rain measurements)
** Current wind speed in m/s (hover to see current wind gust speed)